Probability
3 1 0 0 0 0 0 0 1 1 0 0 0 0 1 0 0 0 0 0 0 0 0 0 0 0 0 0 0 0 0 0 0 1 3 3 1 0
3 2 1 0 0 0 0 1 2 2 1 0 0 1 1 1 0 0 0 1 1 0 0 0 0 0 0 0 0 0 0 0 0 1 2 3 2 1
3 2 1 0 0 0 0 1 2 2 1 1 1 2 2 1 1 0 0 1 1 0 0 0 0 0 0 0 0 0 0 0 0 0 1 2 1 0
3 2 1 0 0 0 0 0 1 2 2 2 2 2 2 2 1 0 0 1 1 0 0 0 0 0 0 0 0 0 0 0 0 0 0 0 0 0
3 2 1 0 0 0 0 0 0 1 2 1 1 1 1 1 1 0 0 0 0 0 0 0 0 0 0 0 0 0 0 0 0 0 0 0 0 0
2 2 2 1 1 0 0 0 0 0 0 0 0 0 0 0 0 0 0 0 0 0 0 0 0 0 0 0 0 0 0 0 0 0 0 0 0 0
1 2 2 2 1 1 1 0 0 1 1 0 0 0 0 0 0 0 0 0 0 0 0 0 0 0 0 0 0 0 0 0 0 0 0 0 0 0
0 1 1 1 1 0 0 0 0 1 1 1 1 0 0 0 0 0 0 0 0 0 0 0 0 0 0 0 0 0 0 0 0 0 0 0 0 0
0 0 0 0 0 0 0 0 0 1 1 1 1 0 0 0 0 0 0 0 0 0 0 0 0 0 0 0 0 0 0 0 0 0 0 0 0 0
0 0 0 0 0 0 0 0 0 0 0 1 1 0 0 0 0 0 0 0 0 0 0 0 0 0 0 0 0 0 0 0 0 0 0 0 0 0
0 0 0 0 0 0 0 0 0 0 0 0 0 0 0 0 0 0 0 0 0 0 0 0 0 0 0 0 0 0 0 0 0 0 0 0 0 0
0 0 0 0 0 0 0 0 0 0 0 0 0 0 0 1 1 0 0 0 0 0 0 0 0 0 0 0 0 0 0 0 0 0 0 0 0 0
0 0 0 0 0 0 0 0 0 0 0 0 0 0 0 1 2 1 1 1 0 0 0 0 0 0 0 0 0 0 0 0 0 0 0 0 0 0
0 0 0 0 0 0 0 0 0 0 0 0 0 0 0 1 2 2 2 2 1 0 0 0 0 0 0 0 0 0 0 0 0 0 0 0 0 0
0 0 0 0 0 0 0 0 0 0 0 0 0 0 0 0 1 2 2 2 1 0 0 0 0 0 0 0 0 0 0 0 0 0 0 0 0 0
0 0 0 0 0 0 0 0 0 0 0 0 0 0 0 0 0 1 1 1 0 0 0 0 0 0 0 0 0 0 0 0 0 0 0 0 0 0
0 0 0 0 0 0 0 0 0 0 0 0 0 0 0 0 0 0 0 0 0 0 0 0 0 0 0 0 0 0 0 0 0 0 0 0 0 0
0 0 0 0 0 0 0 0 0 0 0 0 0 0 0 0 0 0 0 0 0 0 0 0 0 0 0 0 0 0 0 0 0 0 0 0 0 0
0 0 0 0 0 0 0 0 0 0 0 0 0 0 0 0 0 0 0 0 0 0 0 0 0 0 0 0 0 0 0 0 0 0 0 0 0 0
0 0 0 0 0 0 0 0 0 0 0 0 0 0 0 0 0 0 0 0 0 0 0 0 0 0 0 0 0 0 0 0 0 0 0 0 0 0
0 0 0 0 0 0 0 0 0 0 0 0 0 0 0 0 0 0 0 0 0 0 0 0 0 0 0 0 0 0 0 0 0 0 0 0 0 0
0 0 0 0 0 0 0 0 0 0 0 0 0 0 0 0 0 0 0 0 0 0 0 0 0 0 0 0 0 0 0 0 0 0 0 0 0 0
0 0 0 0 0 0 0 0 0 0 0 0 0 0 0 0 0 0 0 0 0 0 0 0 0 0 0 0 0 0 0 0 0 0 0 0 0 0
Wind_Speed
12 13 11 10 9 9 9 9 9 9 10 9 7 8 8 8 9 10 11 13 16 16 16 16 16 16 17 17 16 16 15 14 14 14 15 16 16 17
10 12 12 10 9 9 9 9 10 10 10 8 7 7 8 7 8 10 11 11 13 16 15 15 15 15 15 15 15 15 15 14 14 15 16 16 15 15
11 12 14 13 10 9 9 9 10 10 11 9 7 7 9 9 8 8 8 8 8 13 14 14 14 14 14 14 14 13 14 14 14 15 16 16 16 15
12 12 13 10 12 10 9 11 10 11 11 12 8 7 9 9 8 8 7 6 7 9 12 13 13 13 13 13 12 12 12 13 13 14 15 16 15 15
12 13 13 12 13 11 11 11 9 9 10 10 9 7 6 6 7 7 7 6 6 6 9 11 12 12 12 11 11 11 10 11 12 13 13 14 13 13
12 12 12 12 13 12 10 11 10 10 10 9 9 7 6 5 5 6 5 5 5 5 6 6 8 10 11 11 10 10 10 10 11 11 12 12 11 12
11 11 11 12 13 11 9 9 9 9 9 8 8 6 6 4 6 5 6 5 5 4 4 4 5 5 6 8 9 9 9 10 10 11 10 10 10 11
10 10 9 10 10 11 12 11 11 10 9 8 8 8 9 7 6 5 5 4 5 3 4 4 3 4 4 4 6 8 9 9 10 10 10 9 9 10
9 8 7 7 8 8 8 9 10 11 12 10 9 9 9 8 7 7 6 6 5 2 2 4 3 4 3 3 4 7 8 8 8 9 9 9 9 9
8 9 8 8 7 7 7 7 7 8 8 8 8 8 7 6 6 6 5 4 1 1 2 3 3 3 2 2 3 6 7 7 8 8 8 8 8 9
7 7 7 8 7 6 6 6 6 6 4 5 5 5 4 4 4 3 3 3 3 2 2 2 2 2 2 2 2 4 5 6 6 7 7 7 7 7
5 6 7 7 7 6 6 6 6 5 4 3 3 3 3 3 4 4 4 4 2 2 2 2 2 1 1 1 1 2 3 4 5 6 6 7 6 4
4 4 4 5 5 5 5 5 5 3 3 2 2 2 2 2 2 1 2 3 3 2 2 2 2 2 1 1 1 1 2 2 2 3 4 5 6 5
5 4 3 4 4 5 4 3 3 2 1 2 1 1 1 1 0 0 1 0 0 1 2 3 2 2 2 1 1 1 1 2 2 2 2 4 5 6
4 4 5 4 4 4 3 3 2 2 2 2 2 1 0 1 1 1 2 3 3 3 1 0 1 2 2 2 1 1 1 2 2 2 2 3 3 3
4 3 3 3 2 2 2 2 2 2 2 2 1 1 1 1 1 1 1 1 1 2 2 2 0 1 2 1 2 2 2 2 2 2 2 3 3 3
3 2 2 2 1 1 0 0 1 1 1 1 2 2 2 2 1 1 1 0 1 1 1 2 2 2 1 0 1 1 1 1 2 2 2 3 3 3
3 1 1 1 1 0 0 0 1 1 1 2 2 2 2 2 1 1 1 1 2 1 1 1 1 1 1 1 0 1 1 1 1 2 2 3 3 3
1 1 1 1 1 0 0 1 1 1 1 2 2 2 2 2 2 2 2 1 1 1 1 1 1 1 1 0 0 1 1 1 2 2 2 3 4 4
2 1 1 1 1 0 0 1 1 1 2 2 2 2 2 2 2 2 1 1 1 1 1 1 1 0 0 1 0 1 2 2 2 2 2 2 3 4
2 2 2 1 1 0 0 1 1 1 1 2 2 2 2 2 2 2 2 2 2 1 1 0 1 1 1 1 0 1 1 2 3 3 2 2 2 2
3 2 2 2 1 1 1 1 1 1 2 1 1 2 2 2 2 2 2 2 1 1 1 1 1 1 1 1 0 1 2 2 2 3 5 5 3 2
3 2 2 2 1 1 1 1 1 1 1 1 1 1 2 2 2 2 2 2 2 2 2 1 1 1 1 1 0 1 2 2 2 2 1 3 5 7
Wind_Direction
234 234 234 234 232 232 234 233 240 254 255 247 242 236 237 238 234 233 240 233 231 236 241 241 241 243 243 243 245 241 239 239 237 237 240 244 246 246
234 233 234 235 234 232 232 233 233 242 256 256 250 244 238 243 241 242 243 238 230 233 235 239 241 241 241 241 242 241 237 238 237 237 240 243 247 248
238 236 236 235 235 233 231 230 232 234 248 257 256 251 245 244 241 243 244 242 236 230 233 237 241 241 238 237 239 239 237 237 238 238 240 242 243 246
242 241 242 239 238 237 234 233 232 233 240 251 252 248 248 246 248 244 241 241 245 232 230 236 240 238 235 235 234 236 236 236 237 239 240 240 241 243
245 241 241 240 240 238 237 236 235 236 237 246 250 247 249 245 250 251 248 246 246 242 233 235 238 240 236 232 230 231 233 234 235 237 237 237 238 241
249 247 244 240 240 239 238 239 238 238 238 241 245 245 247 244 237 241 244 241 241 243 241 238 239 239 236 230 228 228 227 230 234 235 235 234 234 237
253 251 248 245 244 242 240 240 240 239 237 237 241 241 237 227 229 229 239 241 244 238 237 233 234 235 230 227 225 224 224 226 230 234 234 232 233 237
256 256 255 247 246 244 243 241 240 241 240 240 239 238 239 234 226 222 224 231 240 219 230 244 235 238 235 226 219 218 221 225 229 232 231 230 234 238
258 256 257 252 249 247 247 243 244 245 243 243 245 242 238 232 222 221 220 224 234 213 221 242 245 250 249 238 216 215 220 225 229 231 232 231 231 237
260 253 252 252 246 247 247 244 245 246 244 241 242 247 241 233 224 222 215 214 249 248 226 233 246 254 256 245 215 219 226 228 228 227 228 230 232 239
265 256 251 253 248 240 240 241 246 249 245 240 242 241 235 224 210 184 182 192 223 224 228 220 231 248 251 242 229 222 227 228 225 225 228 230 232 237
273 264 251 251 248 232 234 234 239 246 238 242 251 241 228 217 205 205 199 202 210 213 198 199 216 209 236 250 247 242 228 224 222 224 233 235 230 234
279 276 270 261 251 238 239 240 237 240 233 224 229 238 231 226 238 240 228 214 211 211 184 188 204 210 207 219 266 260 248 246 236 231 231 233 230 232
279 282 281 279 257 245 239 233 215 221 218 201 208 224 226 221 160 92 95 75 333 195 176 188 199 203 189 207 231 260 268 266 261 255 254 239 230 235
285 284 289 285 269 246 236 229 204 206 200 195 198 223 225 161 126 102 83 79 61 47 57 208 193 208 207 199 204 233 263 269 261 266 268 260 244 234
298 293 290 286 270 249 246 220 211 198 186 181 170 133 104 114 115 110 114 115 95 51 35 30 301 206 201 209 207 221 233 238 248 266 270 268 256 242
309 308 312 318 323 308 236 141 153 149 142 130 134 130 124 113 96 74 83 74 126 132 54 31 35 58 67 201 203 211 219 246 250 258 259 260 253 246
301 295 310 308 291 258 180 160 145 145 137 126 128 134 138 143 133 101 90 111 118 120 113 88 84 81 92 53 293 233 235 253 280 274 263 258 263 263
336 340 323 313 301 294 127 112 100 110 120 125 131 137 137 139 132 126 122 113 114 120 114 113 113 124 155 222 44 273 257 277 283 274 263 260 264 272
4 360 343 333 332 327 77 106 105 105 110 122 133 144 145 144 140 136 138 136 133 117 106 92 85 76 214 256 283 300 286 268 261 272 284 294 292 281
350 349 346 344 346 23 55 95 111 120 122 131 142 151 152 149 142 142 144 139 127 119 122 90 35 27 35 104 141 303 323 302 268 261 280 288 289 279
347 351 355 359 1 25 89 110 112 118 125 131 148 150 147 141 140 144 143 143 126 114 106 87 101 107 110 135 120 332 335 341 319 276 258 253 261 264
346 351 355 0 3 18 58 108 127 135 137 142 141 139 138 131 134 141 133 124 120 124 122 109 88 76 77 84 51 358 346 340 338 338 322 296 274 274